THOR ABLESTAR DEB *, 18651

Orbit data source: Space-Track

THOR ABLESTAR DEB *, 18651 is space debris in LEO originally from a launch on Thu, 29 Jun 1961 UTC launched from the Air Force Eastern Test Range (AFETR). Debris objects in space refer to the collection of defunct objects orbiting the Earth. Examples of debris include non-operational satellites, rocket bodies, and fragments generated from explosions, collisions, or faulty payload assembly.

Loading next visibility...
Identifier
18651, 1961-015LW
Orbit
LEO
Country
Flag of USUS
Related business
Manufacturer
Unknown
Mission
Spacecraft
Bus & Motor
Unknown
Mass
Unknown
Launch date (UTC)
1961-06-29 (64 years ago)
Launch vehicle
Unknown
Launch site
Air Force Eastern Test Range (AFETR)
Object type
Payload
Rocket body
Debris
Shape & HBR
Unknown shape, 0.2 m
Radar Cross Section
Small (<0.1 m²)

Expand to show TLE details & history
Last TLE update: 9 hours ago

TLE from 9 hours ago
0 THOR ABLESTAR DEB *
1 18651U 61015LW  25298.09372683  .00000024  00000-0  22808-3 0  9997
2 18651  65.7007 340.8130 0743833   6.0983  18.5887 12.40420329575147
Epoch: 2025-10-25T02:14Z
TLE epoch observation values (Epoch: 2025-10-25T02:14:57.998Z)
Latitude
25.08269°
Longitude
-74.5229°
Altitude
955.971 km
Speed
7.629 km/s
True Right ascension
23h 31m 47s
True Declination
24° 57' 16"
Sunlit
Object was in full shadow at epoch
Visualization orbit readout
Latitude
Unknown
Longitude
Unknown
Altitude
Unknown
Speed
Unknown
Apparent Right ascension
Unknown
Apparent Declination
Unknown
Sunlit
N/A
Visualization observer readout
Local Sidereal Time
06:11:02
Azimuth
Unknown
Elevation
Unknown
Doppler factor
Unknown
Orbital elements
Apogee altitude
2,089.699 km
Perigee altitude
917.183 km
Semi-major axis
7,881.578 km
Eccentricity
0.07438
Inclination
65.7007°
RAAN
340.813°
Arg. of periapsis
6.0983°
True anomaly
21.56592°
Mean anomaly
18.5887°
Eccentric anomaly
20.04982°
Mean motion
3.10187 °/min
Orbital period
116.06 mins
BSTAR
0.00022808
Loading maneuver chart data...
Computing Atmospheric mass density...

Documentation

Showing up to 5 results
|